Fort Sill, OK

8:48 PM CDT on September 23, 2017 (GMT -0500)
Post Army Air Field

Weather History for KFSI - December, 2013

Change the Weather History Date:

Friday, December 13, 2013

  Actual Average Record
Temperature  
Mean Temperature 43 °F -  
Max Temperature 51 °F 52 °F 71 °F (1948)
Min Temperature 35 °F 30 °F 10 °F (1989)
Degree Days  
Heating Degree Days 22    
Moisture  
Dew Point 37 °F    
Average Humidity 89    
Maximum Humidity 100    
Minimum Humidity 63    
Precipitation  
Precipitation 0.03 in - - ()
Sea Level Pressure  
Sea Level Pressure 29.92 in    
Wind  
Wind Speed 12 mph (SSE)    
Max Wind Speed 20 mph    
Max Gust Speed 26 mph    
Visibility 7 miles    
Events Rain    
Averages and records for this station are not official NWS values.
T = Trace of Precipitation, MM = Missing Value Source: NWS Daily Summary

Daily Weather History Graph

Daily Weather History Graph

Search for Another Location

Airport or City:

Trip Planner

Search our weather history database for the weather conditions in past years. The results will help you decide how hot, cold, wet, or windy it might be!

Date:

Astronomy

Dec. 13, 2013 Rise Set
Actual Time 7:32 AM CST 5:23 PM CST
Civil Twilight 7:04 AM CST 5:51 PM CST
Nautical Twilight 6:32 AM CST 6:23 PM CST
Astronomical Twilight 6:01 AM CST 6:53 PM CST
Moon 3:02 PM CST (12/13) 4:02 AM CST (12/13)
Length of Visible Light 10h 47m
Length of Day
9h 51m
Waxing Gibbous, 88% of the Moon is Illuminated
Dec 13
Waxing Gibbous
Dec 17
Full
Dec 25
Last Quarter
Jan 1
New
Jan 7
First Quarter

Hourly Weather History & Observations

Time (CST) Temp. Windchill Dew Point Humidity Pressure Visibility Wind Dir Wind Speed Gust Speed Precip Events Conditions
12:58 AM 38.5 °F 31.6 °F 30.6 °F 73% 30.20 in 10.0 mi South 10.4 mph - N/A   Mostly Cloudy
1:20 AM 39.2 °F 32.5 °F 32.0 °F 75% 30.18 in 10.0 mi South 10.4 mph - N/A Rain Light Rain
1:30 AM 39.2 °F 33.0 °F 32.0 °F 75% 30.17 in 10.0 mi South 9.2 mph - N/A   Partly Cloudy
1:58 AM 38.1 °F 30.7 °F 31.3 °F 76% 30.17 in 10.0 mi South 11.5 mph - 0.00 in   Mostly Cloudy
2:58 AM 37.6 °F 29.6 °F 32.0 °F 80% 30.16 in 10.0 mi South 12.7 mph - N/A   Overcast
3:58 AM 38.1 °F 30.2 °F 32.5 °F 80% 30.13 in 10.0 mi South 12.7 mph - N/A   Mostly Cloudy
4:58 AM 38.3 °F 31.4 °F 32.7 °F 80% 30.08 in 10.0 mi South 10.4 mph - N/A   Overcast
5:06 AM 39.2 °F 32.5 °F 32.0 °F 75% 30.05 in 10.0 mi South 10.4 mph - N/A Rain Light Rain
5:15 AM 39.2 °F 32.0 °F 32.0 °F 75% 30.06 in 10.0 mi South 11.5 mph - N/A   Overcast
5:51 AM 37.4 °F 29.8 °F 32.0 °F 81% 30.03 in 10.0 mi South 11.5 mph - N/A Rain Light Rain
5:58 AM 38.1 °F 31.2 °F 33.4 °F 83% 30.06 in 10.0 mi South 10.4 mph - 0.00 in Rain Light Rain
6:00 AM 37.4 °F 30.3 °F 32.0 °F 81% 30.04 in 10.0 mi South 10.4 mph - N/A   Overcast
6:04 AM 37.4 °F 30.3 °F 33.8 °F 87% 30.03 in 10.0 mi South 10.4 mph - N/A Rain Light Rain
6:58 AM 37.4 °F 29.8 °F 36.3 °F 96% 30.03 in 8.0 mi South 11.5 mph - 0.02 in Rain Light Rain
7:13 AM 37.4 °F 29.3 °F 35.6 °F 93% 30.00 in 7.0 mi South 12.7 mph - N/A   Overcast
7:14 AM 37.4 °F 29.3 °F 35.6 °F 93% 30.00 in 7.0 mi South 12.7 mph - N/A Rain Light Rain
7:15 AM 37.4 °F 29.8 °F 35.6 °F 93% 30.00 in 7.0 mi South 11.5 mph - N/A   Overcast
7:58 AM 37.4 °F 28.9 °F 37.2 °F 99% 30.02 in 5.0 mi South 13.8 mph - 0.01 in   Overcast
8:00 AM 37.4 °F 28.5 °F 37.4 °F 100% 30.00 in 5.0 mi South 15.0 mph - N/A   Overcast
8:11 AM 37.4 °F 28.2 °F 37.4 °F 100% 30.00 in 5.0 mi South 16.1 mph - N/A Rain Light Rain
8:20 AM 37.4 °F 27.8 °F 37.4 °F 100% 29.99 in 5.0 mi South 17.3 mph - N/A   Overcast
8:27 AM 37.4 °F 28.5 °F 37.4 °F 100% 29.98 in 4.0 mi South 15.0 mph - N/A Rain Light Rain
8:37 AM 37.4 °F 28.5 °F 37.4 °F 100% 29.98 in 5.0 mi South 15.0 mph - N/A Rain Light Rain
8:38 AM 37.4 °F 28.5 °F 37.4 °F 100% 29.98 in 5.0 mi South 15.0 mph - N/A   Overcast
8:58 AM 38.7 °F 30.5 °F 38.7 °F 100% 30.00 in 6.0 mi South 13.8 mph - 0.00 in   Overcast
9:58 AM 39.9 °F 30.8 °F 38.1 °F 93% 29.99 in 10.0 mi South 18.4 mph - N/A   Scattered Clouds
10:58 AM 44.2 °F 36.4 °F 38.8 °F 81% 29.95 in 10.0 mi South 18.4 mph - N/A   Mostly Cloudy
11:58 AM 48.7 °F - 39.6 °F 71% 29.88 in 10.0 mi South 18.4 mph 26.5 mph N/A   Clear
12:58 PM 50.7 °F - 39.0 °F 64% 29.83 in 10.0 mi South 18.4 mph 26.5 mph N/A   Clear
1:58 PM 51.6 °F - 39.4 °F 63% 29.78 in 10.0 mi South 19.6 mph 26.5 mph N/A   Scattered Clouds
2:58 PM 51.1 °F - 39.9 °F 66% 29.75 in 10.0 mi South 15.0 mph 24.2 mph N/A   Mostly Cloudy
3:58 PM 49.5 °F - 40.6 °F 72% 29.74 in 10.0 mi South 17.3 mph - N/A   Partly Cloudy
4:58 PM 48.7 °F - 40.3 °F 73% 29.73 in 10.0 mi SSE 13.8 mph - N/A   Scattered Clouds
5:58 PM 45.9 °F 41.7 °F 39.7 °F 79% 29.75 in 10.0 mi SSE 8.1 mph - N/A   Partly Cloudy
6:58 PM 43.0 °F 37.7 °F 39.4 °F 87% 29.75 in 10.0 mi SSE 9.2 mph - N/A   Clear
7:37 PM 42.8 °F 38.0 °F 39.2 °F 87% 29.75 in 10.0 mi SE 8.1 mph - N/A   Light Drizzle
7:58 PM 42.6 °F 36.8 °F 40.6 °F 93% 29.75 in 10.0 mi SSE 10.4 mph - 0.00 in Rain Light Rain
8:03 PM 42.8 °F 38.0 °F 41.0 °F 93% 29.75 in 10.0 mi SSE 8.1 mph - N/A   Scattered Clouds
8:58 PM 42.4 °F 38.1 °F 41.2 °F 95% 29.77 in 10.0 mi East 6.9 mph - 0.00 in   Overcast
9:58 PM 38.5 °F 32.7 °F 37.9 °F 98% 29.78 in 6.0 mi NNE 8.1 mph - N/A   Partly Cloudy
10:02 PM 37.4 °F 32.1 °F 37.4 °F 100% 29.76 in 6.0 mi NNE 6.9 mph - N/A   Partly Cloudy
10:54 PM 37.4 °F 32.8 °F 37.4 °F 100% 29.78 in 2.5 mi NNE 5.8 mph - N/A   Partly Cloudy
10:56 PM 35.6 °F 30.7 °F 35.6 °F 100% 29.78 in 3.0 mi NNE 5.8 mph - N/A   Partly Cloudy
10:58 PM 35.6 °F 29.9 °F 35.6 °F 100% 29.79 in 3.0 mi NNE 6.9 mph - N/A   Partly Cloudy
11:08 PM 37.4 °F 32.1 °F 37.4 °F 100% 29.79 in 4.0 mi NNE 6.9 mph - N/A   Mostly Cloudy
11:18 PM 39.2 °F 33.6 °F 39.2 °F 100% 29.78 in 4.0 mi NNE 8.1 mph - N/A   Mostly Cloudy
11:23 PM 39.2 °F 33.6 °F 39.2 °F 100% 29.78 in 4.0 mi NNE 8.1 mph - N/A   Overcast
11:39 PM 39.2 °F 31.6 °F 39.2 °F 100% 29.81 in 2.5 mi North 12.7 mph - N/A   Overcast
11:41 PM 39.2 °F 31.6 °F 39.2 °F 100% 29.80 in 1.8 mi North 12.7 mph - N/A   Overcast
11:43 PM 39.2 °F 31.6 °F 39.2 °F 100% 29.81 in 1.5 mi North 12.7 mph - N/A   Overcast
11:49 PM 39.2 °F 32.0 °F 39.2 °F 100% 29.81 in 1.8 mi North 11.5 mph - N/A   Overcast
11:51 PM 39.2 °F 33.0 °F 39.2 °F 100% 29.82 in 2.5 mi North 9.2 mph - N/A   Overcast
11:53 PM 39.2 °F 32.5 °F 39.2 °F 100% 29.81 in 3.0 mi North 10.4 mph - N/A   Overcast
11:58 PM 39.2 °F 32.5 °F 39.2 °F 100% 29.83 in 2.5 mi NNE 10.4 mph - N/A   Overcast